User: anonymous   Login
Location: Newark
(43.0000°N, 1.6781°W)
Time: 03:09:45
(UTC+00:00)
Language:

FO-29 - Orbit

View from above orbital plane
View from above orbital plane
View from above satellite
View from above satellite

Ground track
Ground track

The orbit data is extracted from the following two-line orbital elements,

1 24278U 96046B   24057.47204659  .00000019  00000-0  52113-4 0  9999
2 24278  98.5690   6.8310 0351046 117.5728 246.1530 13.53173192359328
Epoch (UTC): 26 February 2024 11:19:44
Eccentricity: 0.0351046
inclination: 98.5690°
perigee height: 799 km
apogee height: 1322 km
right ascension of ascending node: 6.8310°
argument of perigee: 117.5728°
revolutions per day: 13.53173192
mean anomaly at epoch: 246.1530°
orbit number at epoch: 35932

The dashed part of the orbit path shows where the satellite is in the earth's shadow,  

DLR